Location: Macksville High School
(37.9611°N, 99.9654°W)
Time: 19:21:05
(UTC+00:00)

Cosmos 921 Rocket - Pass Details

Date: 17 January 2021
Orbit: 572 x 631 km, 75.8° (Epoch: 26 February)

Event Time Altitude Azimuth Distance (km) Brightness Sun altitude
Rises 12:02:24 0° 185° (S) 2,838 6.5 -21.7°
Reaches altitude 10° 12:04:39 10° 182° (S) 1,930 5.7 -21.2°
Maximum altitude 12:08:52 59° 103° (ESE) 683 3.5 -20.4°
Drops below altitude 10° 12:13:03 10° 24° (NNE) 1,910 5.7 -19.6°
Sets 12:15:16 0° 20° (NNE) 2,806 6.5 -19.2°
